Notices

What's New in latest Release from April 7th, 2021:

- Updated Glossary, including Speed of Maximum Gust, and Total Hourly Precipitation

- Updated national and regional climate services offices contacts and prices information

- Addition of station inventory lists for 1981-2010, 1971-2000, and 1961-1990 Normals.

If you haven't already, please take our survey and provide feedback about our website: https://eccc.sondage-survey.ca/f/LanguageSelection.aspx?s=442ca660-fcf1-47c0-95a9-59707d6fd709

Hourly Data Report for April 12, 2003

TORONTO CITY
ONTARIO

43°40'00.000" N
79°24'00.000" W
112.50 m
6158355
71508
XTO

Download Data

Hourly Data (April 2003)
Hourly Data Report for April 12, 2003
TIME
LST
Temp Definition
°C
Dew Point Definition
°C
Rel Hum Definition
%
Precip. Amount Definition
mm

Wind Dir Definition
10's deg

Wind Spd Definition
km/h
Visibility Definition
km
Stn Press Definition
kPa
Hmdx Definition


Wind Chill Definition


Weather Definition


00:00 6.7 -0.8 59   LegendMM LegendMM LegendMM 99.48     LegendNANA
01:00 5.7 -0.4 65   LegendMM LegendMM LegendMM 99.44     LegendNANA
02:00 5.7 -0.2 66   LegendMM LegendMM LegendMM 99.40     LegendNANA
03:00 6.1 -2.3 55   LegendMM LegendMM LegendMM 99.37     LegendNANA
04:00 5.4 -2.5 57   LegendMM LegendMM LegendMM 99.35     LegendNANA
05:00 5.2 -2.7 57   LegendMM LegendMM LegendMM 99.38     LegendNANA
06:00 5.6 -3.3 53   LegendMM LegendMM LegendMM 99.45     LegendNANA
07:00 6.2 -3.1 51   LegendMM LegendMM LegendMM 99.52     LegendNANA
08:00 7.5 -2.2 50   LegendMM LegendMM LegendMM 99.54     LegendNANA
09:00 9.2 -2.1 45   LegendMM LegendMM LegendMM 99.61     LegendNANA
10:00 10.3 -1.4 44   LegendMM LegendMM LegendMM 99.67     LegendNANA
11:00 12.1 -0.7 41   LegendMM LegendMM LegendMM 99.73     LegendNANA
12:00 13.7 0.7 41   LegendMM LegendMM LegendMM 99.74     LegendNANA
13:00 12.4 1.7 48   LegendMM LegendMM LegendMM 99.79     LegendNANA
14:00 12.6 2.6 50   LegendMM LegendMM LegendMM 99.84     LegendNANA
15:00 11.9 2.4 52   LegendMM LegendMM LegendMM 99.87     LegendNANA
16:00 10.5 1.7 54   LegendMM LegendMM LegendMM 99.91     LegendNANA
17:00 9.7 1.0 55   LegendMM LegendMM LegendMM 99.99     LegendNANA
18:00 8.1 -0.2 56   LegendMM LegendMM LegendMM 100.10     LegendNANA
19:00 6.4 -0.9 60   LegendMM LegendMM LegendMM 100.21     LegendNANA
20:00 5.1 -2.2 59   LegendMM LegendMM LegendMM 100.31     LegendNANA
21:00 4.4 -2.8 59   LegendMM LegendMM LegendMM 100.39     LegendNANA
22:00 4.3 -3.7 56   LegendMM LegendMM LegendMM 100.43     LegendNANA
23:00 4.1 -5.1 51   LegendMM LegendMM LegendMM 100.52     LegendNANA

Notes on Data Quality.

Legend

  • E = Estimated
  • M = Missing
  • NA = Not Available*
  • [empty] = Indicates an unobserved value
Date modified: